Tracking 29892 objects as of 21-Nov-2024
HD Live streaming from Space Station
objects crossing your sky now

STARLINK-5846

Track STARLINK-5846 now!
10-day predictions
STARLINK-5846 is classified as:


NORAD ID: 56492
Int'l Code: 2023-064AW
Perigee: 577.2 km
Apogee: 581.1 km
Inclination: 70.0 °
Period: 96.1 minutes
Semi major axis: 6950 km
RCS: Unknown
Launch date: May 10, 2023
Source: United States (US)
Launch site: AIR FORCE WESTERN TEST RANGE (AFWTR)
Your satellite tracking list
Your tracking list is empty




NASA's NSSDC Master Catalog

Two Line Element Set (TLE):
1 56492U 23064AW  24325.16310900  .00000237  00000-0  27612-4 0  9991
2 56492  70.0001 220.8777 0002783 271.1028  88.9812 14.98334769 85159
Source of the keplerian elements: AFSPC